LFOELFRG

Guest
Details From LFOE - FAUVILLE
To LFRG - Deauville Saint Gatien
Flight Number -
Tags generated
Created
Modified
Stats Distance 46 nm / 86 km
Max Altitude 1,500 ft / 457 m
Waypoints 3
Social Downloads 15
Likes 0
Share VATSIM

Download

Looking for another format? Having issues loading an existing format? Contact us
Advertisement - Login to hide

Notes

Basic altitude profile: - Ascent Rate: 250ft/min - Ascent Speed: 80kts - Cruise Altitude: 5000ft - Cruise Speed: 104kts - Descent Rate: 250ft/min - Descent Speed: 80kts Options: - Use NATs: yes - Use PACOTS: yes - Use low airways: yes - Use high airways: yes

Route

LFOE DVL LFRG

ID Type Via Altitude Latitude Longitude Leg Dist Tot Dist Heading (true) Name
O LFOE APT - 0 ft / 0 m 49.02867˚ 1.21987˚ - 0 nm - FAUVILLE
DVL VOR - 1,500 ft / 457 m 49.31075˚ 0.31272˚ 39 nm 39 nm 296° / 295° DEAUVILLE SAINT GATIEN VOR
O LFRG APT - 0 ft / 0 m 49.36530˚ 0.15432˚ 7 nm 46 nm 298° / 298° Deauville Saint Gatien

Altitude Profile

Advertisement - Login to hide

LFOE

Details ICAO LFOE
Name FAUVILLE
Region France
Timezone Europe/Paris (UTC+1.0)
Stats Elevation 464 ft / 141 m (AMSL)
Location 49.028669° 1.219866°
Runways 1
Magnetic Variation 0.225° E

METAR

LFOE 130000Z AUTO 19011KT CAVOK 04/03 Q1013

Decode

TAF

TAF LFOE 122000Z 1221/1321 20010KT 9999 SCT040 BECMG 1222/1301 18010G20KT BKN010 TEMPO 1303/1318 20015G30KT 3000 RADZ BKN007 BECMG 1318/1319 28015G30KT SCT020 PROB40 TEMPO 1318/1321 28025G40KT 3000 SHRA SCT010 BKN020CB

Decode

Departure Runways

ID Width Length Bearing (true) Bearing (mag) Surface Threshold Offset Overrun Length
04 148 ft / 45 m 9,836 ft / 2,998 m 39.78° 39.56° Asphalt 0 ft / 0 m 0 ft / 0 m
22 148 ft / 45 m 9,836 ft / 2,998 m 219.80° 219.58° Asphalt 0 ft / 0 m 0 ft / 0 m

LFRG

Details ICAO LFRG (DOL)
Name Deauville Saint Gatien
Region France
Timezone Europe/Paris (UTC+1.0)
Stats Elevation 479 ft / 146 m (AMSL)
Location 49.365296° 0.154324°
Runways 1
Magnetic Variation 0.143° W

METAR

LFRG 130000Z AUTO 21013KT 9999 BKN046 BKN054 OVC068 06/03 Q1011

Decode

TAF

Not found

Destination Runways

ID Width Length Bearing (true) Bearing (mag) Surface Threshold Offset Overrun Length
12 148 ft / 45 m 8,344 ft / 2,543 m 117.22° 117.36° Asphalt 1,476 ft / 450 m 0 ft / 0 m
30 148 ft / 45 m 8,344 ft / 2,543 m 297.25° 297.39° Asphalt 1,378 ft / 420 m 0 ft / 0 m

Approach Navaids

Runway Type Ident Frequency Range Bearing (true) Bearing (mag) Slope Elevation
30 Localiser DV 111.55 MHz 18 nm / 33 km 297.22° 297.36° - 479 ft / 146 m (AMSL)
30 Glidescope DV 111.55 MHz 10 nm / 19 km 297.23° 297.38° 3.00° 479 ft / 146 m (AMSL)
30 DME DV 111.55 MHz 18 nm / 33 km - - - 466 ft / 142 m (AMSL)

Popular Alternatives